Theta_e
322 324 324 325 325 324 324 323 326 330 329 328 328 328 329 330 329 327 328 326 321 324 326 323 323 322 322 323 320 321 322 321 320 319 319 321 322 322 324 324 323 323 323 323 323 322 322 321 322 322 321 320 320 319 319 318 319 319 320 321 320 320 320 321 324 327 328 327 325 324 323 321 319 317 316 315 314 314 314 316 318 320 320 321 321 322
323 325 325 324 324 324 324 323 324 328 328 327 327 328 327 328 328 326 329 329 323 324 327 324 323 323 322 322 320 320 320 321 320 320 320 321 322 322 322 322 323 323 323 323 323 323 322 322 322 322 322 322 322 321 319 318 317 317 319 319 318 319 320 319 320 323 326 328 328 327 325 324 321 319 318 317 316 315 314 315 317 318 319 319 320 321
324 324 324 323 322 323 324 324 324 326 327 328 328 327 327 327 326 327 328 327 323 325 329 328 325 323 322 321 320 319 319 320 321 321 322 322 322 322 322 322 322 323 323 323 323 323 323 322 321 322 322 322 322 321 320 319 319 318 318 318 317 318 319 318 318 319 321 324 327 328 327 324 322 320 319 318 317 316 315 315 315 316 317 318 319 320
325 324 323 321 321 323 325 324 323 325 326 328 330 329 329 328 327 328 329 325 323 326 327 328 326 323 322 321 320 319 318 320 321 321 322 322 322 323 323 323 323 323 323 323 323 323 322 322 321 322 322 322 322 322 322 322 322 320 318 316 316 317 317 317 317 317 318 321 324 328 328 326 323 321 320 319 318 317 316 316 316 317 318 319 320 320
325 323 321 321 321 323 324 323 324 324 325 326 329 329 330 330 327 329 330 325 322 323 321 322 326 325 323 323 322 320 319 319 320 321 321 322 322 323 323 323 323 323 323 324 324 323 323 322 321 321 322 322 322 322 322 322 322 320 317 316 315 316 316 316 315 316 318 321 323 326 328 327 324 322 321 320 319 318 317 317 317 317 318 320 320 320
323 321 321 322 322 322 323 323 323 324 325 325 326 328 331 333 331 330 328 323 323 327 323 322 329 330 326 325 323 322 322 320 319 318 319 321 322 322 322 322 323 323 323 323 323 323 323 323 322 321 321 321 321 321 320 320 320 318 317 317 316 316 315 315 315 316 318 320 321 323 325 326 325 324 322 321 321 320 319 318 317 317 318 319 319 320
322 320 321 323 322 322 322 323 322 323 325 325 325 326 331 334 334 332 327 325 329 330 326 322 327 331 328 326 324 323 323 322 320 318 317 319 321 321 321 322 323 323 323 323 323 323 322 322 323 322 321 321 320 320 319 319 319 319 319 318 317 317 316 315 315 317 318 319 319 320 321 322 323 324 323 322 322 321 320 319 319 318 318 318 318 318
322 320 322 322 321 322 322 322 322 322 324 325 326 327 331 334 335 333 330 330 331 329 327 323 323 327 327 326 326 324 323 322 321 320 317 317 319 320 321 322 322 322 322 323 323 323 323 322 322 322 322 321 320 320 319 319 319 319 320 319 319 318 317 317 317 317 318 319 318 318 318 319 320 321 320 322 323 322 321 320 320 320 319 319 319 318
322 321 321 321 322 321 321 321 321 321 323 326 329 329 330 333 334 333 332 331 328 328 331 327 323 326 327 327 327 325 325 324 322 322 319 317 318 319 321 322 322 322 321 322 322 323 323 323 323 323 323 322 321 321 320 320 320 320 321 321 322 321 320 320 320 319 318 318 318 318 318 317 317 317 318 321 323 322 322 321 321 320 320 320 320 320
323 321 320 320 321 321 321 322 322 322 322 324 327 328 330 332 332 332 332 330 327 328 332 328 324 327 330 329 326 324 325 325 323 323 320 318 319 320 321 322 322 322 322 322 322 322 322 322 323 323 322 322 322 321 320 320 320 321 321 322 323 323 322 321 321 321 320 319 319 319 318 316 315 315 317 319 321 322 323 322 321 321 321 320 321 320
322 321 319 320 320 320 321 323 321 322 323 324 326 329 329 330 331 331 330 329 330 331 331 328 323 326 331 330 326 325 326 326 324 323 322 319 318 319 319 320 320 321 322 322 322 323 323 323 322 322 322 322 322 321 320 320 320 321 322 322 323 322 322 322 322 323 322 320 320 318 317 316 315 316 317 317 318 319 320 320 320 321 321 321 321 321
322 322 321 320 319 319 321 323 321 321 323 326 330 331 329 328 329 329 327 328 331 333 331 328 324 325 330 330 325 324 326 328 325 325 325 320 317 318 318 319 319 319 320 321 321 321 322 323 323 322 322 322 322 321 321 321 320 321 321 322 323 323 323 323 323 323 323 322 322 319 318 317 316 317 318 317 316 317 317 317 318 319 319 320 320 320
322 323 322 320 320 319 321 323 323 324 325 327 330 329 328 329 330 330 329 329 331 331 328 326 325 326 328 328 326 325 325 324 320 319 321 318 316 318 320 320 321 320 321 321 321 321 321 322 323 323 323 323 322 322 322 322 321 321 321 321 322 322 323 322 323 322 322 323 323 321 320 319 318 319 319 318 317 317 316 316 317 317 318 318 318 318
322 322 323 323 321 320 320 323 324 326 326 325 327 327 326 328 329 330 330 330 330 329 324 322 325 328 328 326 326 327 325 321 317 316 318 317 318 320 321 321 321 320 320 320 322 323 322 322 322 322 323 323 323 323 322 322 322 322 321 321 321 321 321 322 323 322 321 321 320 321 321 320 321 320 320 318 317 317 317 317 317 316 316 316 316 316
322 323 324 324 324 321 320 322 323 324 325 324 324 325 324 326 329 328 328 330 329 326 322 321 325 330 329 325 322 320 319 319 318 318 318 317 318 319 320 321 321 320 319 319 321 323 323 323 322 322 322 323 323 322 322 322 322 322 322 321 321 321 321 321 322 322 322 320 319 319 320 321 322 321 320 319 318 317 317 316 316 316 316 316 315 316
321 324 324 324 324 322 320 321 321 322 325 324 324 326 325 326 329 327 327 329 328 326 324 322 325 326 324 321 318 315 315 316 316 316 317 317 317 317 318 319 320 320 319 319 320 322 323 322 322 323 322 323 322 322 322 322 322 322 321 321 321 320 321 321 321 322 321 320 319 319 319 320 321 321 321 319 317 317 317 317 317 316 316 316 315 316
321 323 324 323 324 322 321 321 320 322 326 325 325 327 324 326 329 328 325 324 324 327 326 324 325 324 321 322 320 319 320 319 317 316 314 316 317 316 316 317 319 319 319 320 320 321 322 322 322 322 322 322 322 322 322 321 321 321 320 320 320 320 320 321 321 321 321 321 320 320 319 319 319 319 319 318 317 317 318 319 318 317 317 317 316 317
323 324 323 323 325 323 321 321 321 321 323 325 326 325 322 325 328 327 327 325 324 326 327 326 326 324 324 326 322 320 322 321 322 320 314 313 315 315 316 317 318 319 319 319 320 320 321 321 320 320 320 321 321 321 321 320 320 319 318 318 318 318 319 320 320 321 321 321 320 319 319 319 319 319 318 318 318 319 321 321 319 319 319 318 318 318
323 323 323 323 324 324 322 323 325 323 321 322 324 323 323 326 326 324 327 327 325 326 326 326 325 323 324 324 321 320 320 319 321 322 319 315 314 315 318 318 318 319 319 319 320 320 319 319 319 319 319 319 319 319 319 319 318 318 317 317 317 317 318 318 319 320 320 320 320 319 319 319 319 319 319 318 319 320 322 321 320 320 320 319 320 320
321 321 322 320 320 322 323 324 327 326 322 320 321 322 324 325 324 324 324 325 325 326 325 326 325 324 323 321 321 322 320 318 318 319 319 316 314 316 318 318 318 318 319 319 319 319 319 319 318 318 318 318 317 317 317 318 318 317 316 316 316 317 317 318 319 319 320 320 320 319 318 318 318 318 318 319 319 321 321 320 321 321 321 321 322 321
321 321 322 319 318 321 324 325 326 327 325 323 324 325 325 324 324 325 323 325 328 326 325 326 325 325 322 318 320 321 320 322 320 320 320 315 313 317 318 317 318 318 318 319 319 319 319 319 318 317 317 316 315 315 315 316 317 317 316 315 315 316 316 317 318 318 319 319 318 317 316 316 317 317 318 319 319 320 319 319 320 320 322 323 323 323
321 320 321 321 319 321 323 322 321 322 324 325 325 326 326 324 324 326 325 327 328 326 327 327 324 326 324 317 317 318 320 323 320 320 322 316 313 316 317 317 319 319 319 319 319 319 319 318 317 317 316 315 315 315 314 314 314 315 315 315 315 315 315 315 316 316 317 316 316 315 315 315 316 317 318 318 318 318 318 318 319 320 323 324 324 324
319 319 320 320 320 320 319 318 316 316 319 323 325 325 325 324 323 325 325 325 324 324 327 327 323 326 322 315 316 317 316 316 314 314 316 314 314 316 316 317 319 319 319 319 319 319 319 318 317 316 315 315 315 315 315 314 314 313 313 313 314 314 314 314 314 314 314 314 314 314 314 314 315 315 316 316 316 316 317 319 321 323 325 325 325 326
318 318 318 319 320 319 318 317 316 316 318 322 324 323 324 324 322 324 325 325 324 324 325 325 324 324 320 316 316 314 312 313 313 312 313 314 315 317 317 318 319 319 319 319 319 318 317 317 317 316 316 315 315 315 314 314 314 313 313 312 312 313 313 313 313 313 313 313 313 313 313 313 313 313 313 314 314 314 316 318 320 322 324 324 325 326
318 319 319 321 322 321 321 320 319 319 318 320 323 323 323 324 323 325 326 325 324 324 324 325 325 324 320 320 318 314 314 316 313 312 315 315 316 318 319 318 319 319 319 318 318 318 317 317 317 316 315 314 313 313 313 313 313 313 313 312 311 311 311 311 311 312 312 312 312 313 313 312 312 312 312 311 311 311 312 314 316 318 319 321 322 323
319 319 319 322 323 323 325 324 321 321 320 319 321 322 323 324 323 324 325 323 324 325 324 324 325 322 318 318 318 315 316 319 315 312 313 315 317 319 319 319 319 318 318 318 317 317 317 316 315 314 314 313 313 312 312 312 312 312 312 311 311 311 311 310 310 311 311 311 312 312 312 312 311 311 311 310 310 310 310 311 312 314 316 317 319 320
318 317 317 320 322 322 324 322 320 321 321 319 320 321 322 323 323 324 324 323 324 325 324 323 323 323 319 317 318 316 315 320 320 313 311 314 317 318 319 318 317 317 317 316 316 315 315 315 314 313 313 312 312 312 312 312 311 312 311 311 311 311 311 311 311 311 311 311 311 312 311 312 311 311 311 310 310 309 309 310 311 312 314 316 318 320
317 318 317 318 320 320 321 320 318 319 320 319 319 320 321 322 322 323 323 322 323 323 323 323 321 322 322 318 319 319 318 321 320 313 310 314 316 317 317 316 315 315 315 314 314 314 314 314 313 312 312 312 312 311 311 311 311 312 311 312 311 311 311 311 311 311 311 311 311 311 311 311 312 311 311 311 310 310 310 310 310 311 312 314 315 317
317 319 318 317 318 318 318 319 319 320 320 319 319 319 320 321 321 321 321 321 323 323 322 322 321 321 321 318 319 319 317 316 315 313 312 314 315 314 315 315 315 315 314 314 314 314 314 314 313 312 312 311 311 311 311 311 311 311 311 311 311 311 311 311 312 311 311 311 311 311 312 312 312 312 312 312 311 311 311 311 311 311 311 311 311 312
316 320 318 317 318 318 318 318 319 320 320 320 320 319 319 321 321 321 321 321 322 322 321 321 322 320 319 318 319 317 315 313 313 313 313 314 315 314 314 315 315 316 316 316 316 316 315 314 313 312 311 311 311 311 311 311 311 311 311 311 311 311 311 311 311 311 311 311 311 311 311 311 311 311 311 311 311 311 311 311 311 311 311 311 310 310
315 319 319 317 318 318 317 318 318 319 320 320 320 320 320 321 321 321 321 321 321 322 321 321 322 321 319 318 317 315 314 314 315 314 314 314 315 315 315 316 316 317 317 317 317 317 317 316 313 311 311 311 311 311 311 312 312 312 312 312 311 311 311 310 310 310 311 311 310 311 311 311 311 311 311 311 311 311 311 311 311 311 311 311 311 310
314 317 317 317 318 318 317 317 317 317 318 319 319 320 319 320 321 321 321 321 322 322 322 322 322 321 319 318 318 316 315 315 315 314 314 315 315 315 316 317 317 316 316 317 317 317 318 317 314 312 312 312 311 312 312 312 312 312 312 312 312 312 311 311 311 311 310 310 310 310 310 310 311 310 311 311 311 311 311 311 311 311 311 311 311 311
311 314 316 316 318 319 318 317 317 317 318 319 319 319 319 320 321 321 321 321 321 321 321 322 321 320 319 321 321 319 318 317 314 313 315 316 316 316 317 317 316 316 316 317 318 317 318 318 316 313 312 312 312 312 313 313 314 314 314 314 314 313 313 312 312 312 311 310 311 310 310 310 310 310 311 311 311 311 311 311 311 311 311 311 311 310
309 312 313 314 317 320 318 316 317 318 319 320 320 318 318 319 320 321 321 320 320 320 320 320 320 319 319 320 320 319 318 317 314 314 315 316 316 316 316 316 316 316 317 317 318 317 318 317 316 314 313 313 312 313 314 314 314 315 315 315 315 315 314 313 313 312 312 311 311 311 310 310 310 310 310 310 311 311 311 312 311 311 311 311 310 310
310 311 311 312 315 317 317 316 318 319 319 321 322 319 317 318 319 319 320 320 319 319 320 319 319 319 319 318 318 317 317 316 315 315 316 316 316 317 316 316 317 317 317 317 317 317 317 317 315 314 315 315 313 312 313 314 314 314 314 314 314 315 315 314 314 313 313 312 312 311 310 310 310 310 310 310 310 311 311 312 312 312 311 311 310 310
311 310 311 311 313 316 317 317 319 320 318 319 321 319 317 317 319 320 320 320 319 319 320 319 319 319 319 318 317 317 316 315 315 315 316 316 316 316 317 317 317 317 317 317 317 317 317 316 316 315 316 316 315 312 312 313 314 314 314 314 315 315 314 315 315 314 313 313 312 312 311 310 310 310 310 310 310 311 311 312 312 312 311 311 310 310
311 311 310 310 312 314 315 316 318 320 319 319 320 319 318 318 318 319 320 320 319 318 319 319 319 319 319 318 317 316 315 315 315 316 316 315 315 316 317 317 317 317 317 317 317 317 317 317 317 316 316 316 316 314 312 313 314 315 315 314 314 314 314 314 314 315 314 313 313 312 312 311 310 310 310 310 310 311 311 312 312 312 311 311 310 310
310 310 310 309 311 313 313 314 317 319 320 321 321 319 317 317 317 318 320 320 319 318 318 318 318 318 319 318 317 315 316 317 317 317 316 315 316 316 317 317 317 317 317 317 317 317 317 316 317 317 317 316 316 315 314 313 315 315 315 314 314 313 314 314 314 314 314 314 313 313 312 312 311 310 310 310 310 311 311 312 312 311 311 311 310 309
309 309 309 308 309 310 310 311 313 317 321 324 324 318 315 315 317 319 320 320 319 317 317 317 318 318 318 317 315 315 317 319 318 317 315 316 317 317 317 317 317 316 317 317 317 316 317 316 316 317 317 316 316 315 315 315 315 315 315 314 313 313 313 313 313 314 314 314 314 313 312 311 311 311 311 310 310 310 311 311 312 311 311 310 309 309
309 309 309 308 307 307 307 308 309 313 318 320 318 315 314 315 316 319 321 322 319 316 316 317 317 317 317 316 315 316 318 318 318 316 316 316 317 317 317 317 317 317 317 317 317 317 317 316 317 317 316 315 315 316 315 315 315 315 315 315 314 313 313 313 312 313 313 313 313 312 311 311 311 310 310 310 310 311 311 311 311 311 311 310 309 309
310 309 308 308 308 307 307 307 307 309 312 312 311 311 313 315 317 320 322 321 317 316 316 317 316 317 317 316 315 316 317 317 317 317 316 316 316 316 317 317 317 317 317 317 317 317 316 317 317 317 316 315 316 317 316 315 315 315 315 315 314 314 313 313 312 312 313 313 311 311 310 310 310 310 310 310 310 310 311 311 311 311 310 310 309 308
309 310 310 309 308 307 307 307 307 308 309 309 308 310 313 317 318 320 320 317 315 315 316 317 316 316 316 316 315 316 316 317 317 317 316 316 316 316 317 316 316 316 316 316 316 317 316 316 317 317 317 317 317 317 316 315 315 315 315 315 315 314 314 314 313 312 312 312 311 310 310 310 310 310 310 310 310 310 311 311 311 311 310 310 310 309
308 309 309 309 309 308 307 307 307 308 308 308 310 312 314 316 318 318 316 315 315 315 315 316 316 316 316 316 315 316 316 316 317 317 316 316 316 316 317 316 315 316 316 316 316 316 316 316 317 317 317 317 317 316 316 315 315 315 315 315 315 314 314 314 313 312 311 311 310 310 310 310 310 310 310 310 310 310 311 311 311 311 311 310 310 310
307 308 309 309 309 308 308 307 307 308 307 308 311 313 314 314 314 314 315 315 315 314 314 314 315 316 316 316 316 316 316 316 316 316 316 316 316 316 316 316 315 315 315 316 316 316 316 316 316 316 316 316 316 316 315 315 315 315 315 315 314 314 314 314 313 312 311 311 310 310 310 310 310 310 310 310 310 310 310 311 311 311 310 310 309 309
307 308 310 310 309 308 309 308 307 307 306 307 309 312 312 312 312 313 314 314 314 314 314 314 314 315 316 316 316 316 315 315 316 316 316 316 316 316 315 316 315 315 315 315 315 315 316 316 316 316 316 316 316 315 314 314 315 315 315 314 314 314 313 313 312 311 311 311 310 310 310 310 310 310 310 310 310 310 310 310 310 310 310 310 309 309
306 305 306 308 310 309 307 307 308 307 306 306 308 310 311 312 312 313 314 313 314 314 314 313 313 314 314 315 314 315 315 315 316 316 316 316 315 315 315 315 315 314 314 315 315 315 315 315 316 316 316 316 316 314 314 314 315 315 314 314 313 313 312 312 311 311 310 310 310 310 310 310 310 310 310 310 310 310 310 310 310 310 310 310 310 310
305 304 304 308 311 310 307 308 309 309 307 306 307 308 310 310 311 312 313 313 313 313 314 313 313 312 313 313 312 312 313 314 315 315 315 315 314 314 314 314 314 314 314 314 314 315 314 315 316 315 315 316 315 314 314 314 314 314 314 313 312 311 311 311 311 310 310 310 309 309 309 310 310 309 309 309 310 310 310 310 310 310 310 310 310 310
305 305 305 307 307 307 308 309 307 306 306 306 306 307 307 308 309 309 310 311 311 312 313 313 313 312 313 313 313 312 312 312 313 313 314 315 314 313 313 314 313 313 314 314 314 314 314 315 315 315 315 315 315 315 314 314 314 314 313 312 311 310 310 310 310 310 310 309 309 309 309 309 309 309 309 310 310 310 309 309 309 309 309 309 309 309
304 306 308 309 307 306 307 307 306 305 306 306 306 306 306 307 307 307 308 308 309 311 312 312 312 313 313 314 314 314 313 313 313 313 315 315 314 314 314 314 313 312 312 313 313 313 314 314 315 315 315 315 314 314 314 313 313 313 312 311 310 309 309 309 309 309 309 309 309 309 309 309 309 309 309 309 309 309 309 309 309 309 309 309 309 309
302 305 308 309 307 306 306 306 306 307 306 306 306 306 306 306 307 307 307 308 308 309 310 310 311 311 312 312 313 313 313 314 314 314 315 315 314 315 314 313 312 312 312 313 313 313 314 314 315 315 315 315 314 313 313 313 312 311 310 310 309 309 309 309 309 309 308 308 309 309 309 309 309 309 309 309 309 309 309 309 309 308 308 308 308 308
301 303 304 304 305 305 305 305 305 306 306 306 306 306 306 306 306 306 307 307 307 307 308 309 309 310 310 311 311 312 313 314 314 315 315 314 315 315 313 312 312 313 313 313 314 314 314 314 315 315 315 314 314 313 313 313 312 311 310 310 309 309 309 309 309 309 309 309 309 309 309 309 309 309 309 309 309 309 309 309 309 308 308 308 308 307
Wind_Speed
15 7 7 11 13 14 14 14 10 4 7 8 6 5 7 6 5 4 3 5 10 7 7 11 11 13 17 13 15 26 23 18 19 18 20 24 26 28 30 32 33 34 35 31 31 34 35 34 32 31 30 30 31 32 33 32 32 33 33 34 34 33 33 33 34 34 35 38 38 37 37 37 35 33 32 31 30 31 30 29 28 28 28 27 27 26
12 9 12 17 15 13 13 12 9 4 7 8 7 6 6 6 5 4 5 4 5 6 5 8 11 13 16 13 16 21 15 16 24 21 23 28 29 31 33 35 36 36 36 34 34 35 36 37 36 35 34 34 34 34 35 35 34 34 34 34 34 34 34 35 35 36 36 38 39 40 40 38 36 34 34 33 32 32 31 31 31 31 31 30 30 29
7 10 18 19 13 10 9 10 9 6 6 6 6 5 5 5 2 4 6 4 1 4 4 6 9 12 14 14 16 17 14 20 29 27 29 32 32 35 37 38 40 40 40 38 37 36 35 36 38 38 38 37 36 35 36 37 36 36 35 35 35 35 35 35 36 37 37 37 37 39 40 38 37 35 34 33 32 32 32 33 33 33 33 33 32 31
8 15 22 17 11 10 8 8 9 6 4 5 5 5 5 4 3 4 5 5 3 3 2 4 7 7 9 11 12 16 21 25 29 29 31 33 33 38 40 40 41 41 42 41 39 37 35 35 37 40 41 39 38 38 38 38 38 38 37 36 36 36 36 35 36 37 37 36 35 35 38 39 38 36 35 35 34 35 35 35 35 36 36 35 35 33
12 11 13 15 13 14 12 9 10 8 7 6 6 7 5 6 7 6 3 2 4 3 1 1 7 8 7 10 11 14 19 22 27 28 29 33 37 39 40 41 42 42 43 42 41 40 38 37 37 40 41 40 40 40 40 39 39 39 38 37 36 36 36 36 36 36 36 36 36 36 37 40 41 41 40 40 40 39 39 38 38 38 38 37 36 35
13 7 16 17 13 13 12 10 13 11 8 7 8 9 8 8 8 6 4 3 2 5 3 2 5 8 5 11 13 11 10 14 21 23 25 33 37 38 39 42 44 44 44 44 43 42 41 40 39 39 41 41 41 41 40 40 39 39 39 38 37 37 36 36 36 36 36 37 38 39 40 42 44 45 46 45 44 43 41 40 39 39 39 39 39 38
7 9 16 16 12 12 11 10 13 13 9 9 9 8 7 8 8 6 6 5 4 6 4 2 6 8 3 7 11 9 8 11 14 14 20 31 34 35 39 43 46 46 46 45 45 44 43 42 41 41 42 43 43 41 40 40 40 39 39 40 39 39 38 37 37 37 38 39 39 40 42 42 44 46 46 45 44 43 42 40 39 39 39 39 40 40
8 13 13 13 14 12 11 12 13 15 10 7 6 10 7 6 7 5 6 4 3 2 4 1 3 7 8 6 6 6 7 10 11 10 16 26 32 36 40 44 46 46 46 46 46 45 44 44 43 43 42 43 43 42 41 41 41 40 40 40 40 40 40 39 39 39 39 40 40 41 41 42 44 45 45 44 44 44 43 42 41 40 40 40 41 41
11 17 15 16 15 11 14 15 13 16 11 5 8 12 7 5 6 4 5 2 2 3 5 4 2 4 9 5 5 7 9 11 12 12 14 22 31 35 39 42 42 42 43 43 45 45 44 45 45 44 43 42 42 41 42 42 42 41 41 41 42 42 42 42 41 41 40 41 41 41 41 42 43 44 44 45 45 45 45 44 43 42 42 42 42 42
5 14 18 16 12 11 13 9 11 14 9 4 8 9 5 6 5 4 5 3 3 1 8 7 5 5 10 5 5 5 9 12 12 10 13 22 32 35 37 40 40 39 39 38 40 42 43 44 43 43 43 42 42 41 42 42 42 42 42 43 44 44 44 43 44 43 42 41 42 42 42 42 42 42 43 45 46 47 47 47 45 45 44 43 43 43
2 8 14 11 11 11 8 10 15 16 9 8 8 8 7 5 4 4 3 4 2 6 11 10 11 8 10 5 8 7 6 9 9 8 11 20 29 32 34 37 38 38 38 37 38 39 39 39 39 41 42 42 42 41 42 42 42 43 43 44 45 44 44 44 45 46 45 44 43 43 42 42 41 41 42 43 44 46 47 47 46 45 45 45 45 44
4 3 6 10 17 12 10 10 13 14 15 11 5 5 5 1 2 2 1 3 3 10 10 12 15 11 11 7 6 8 6 8 9 9 11 14 20 25 27 27 28 28 30 32 36 37 37 37 37 38 40 40 41 41 41 42 42 44 44 45 45 45 45 45 46 46 46 46 45 44 43 43 42 42 42 42 42 43 44 45 45 45 45 45 45 45
6 5 3 8 16 16 12 6 3 7 12 9 5 7 6 3 3 5 5 4 8 9 5 10 14 10 14 11 5 6 6 7 10 13 14 15 18 22 19 16 14 13 17 21 26 31 33 35 36 37 37 37 38 39 39 39 41 43 44 45 46 45 45 45 46 47 46 47 47 45 44 44 43 43 43 42 41 41 42 42 43 44 44 44 44 44
4 6 6 6 8 17 17 9 5 7 11 11 10 11 10 7 6 9 8 5 9 8 2 4 9 7 13 11 7 10 10 13 18 19 22 23 23 22 17 14 12 12 16 18 20 23 26 27 30 32 35 35 36 36 36 37 38 40 42 44 46 45 44 45 46 47 47 47 46 45 45 44 44 44 44 43 42 41 42 42 42 42 43 43 42 41
4 5 8 8 6 16 19 15 16 14 12 14 12 10 10 7 6 8 7 7 8 3 1 2 5 7 8 4 4 9 12 18 23 23 24 25 24 22 20 20 21 21 22 22 21 20 20 21 20 23 27 30 32 33 34 35 36 38 40 42 44 45 44 45 45 47 47 46 45 45 45 45 45 44 44 43 42 42 42 42 42 42 42 43 42 41
4 5 6 10 7 14 19 17 16 13 8 9 7 8 10 8 5 3 3 6 4 0 3 4 4 5 5 5 5 6 8 13 19 22 24 28 28 24 24 26 28 29 28 24 23 20 18 17 17 19 22 24 27 28 30 31 32 35 37 39 42 43 43 44 44 45 46 45 44 44 45 45 45 44 44 43 42 42 42 43 43 42 42 42 42 42
5 4 3 9 6 12 21 18 15 15 9 6 8 10 8 5 6 4 2 1 4 3 5 3 7 6 3 9 11 9 9 9 11 16 21 30 32 26 26 30 31 31 26 22 24 24 22 21 20 22 23 23 25 26 27 28 29 31 32 35 38 40 41 43 44 44 44 43 43 43 43 43 44 44 44 43 42 42 43 44 43 42 42 43 43 43
5 3 1 9 9 12 19 18 17 18 10 5 10 11 4 3 2 3 2 1 3 5 4 5 13 10 3 7 8 10 14 10 9 12 14 20 24 22 25 29 28 26 22 19 22 24 24 23 23 23 23 24 24 24 26 27 27 28 29 31 34 36 38 40 41 42 43 42 42 41 41 42 42 43 43 42 43 44 45 45 44 43 43 42 43 43
5 3 3 8 9 6 7 10 12 11 4 1 8 10 6 3 4 4 4 3 4 7 6 7 12 10 9 10 4 8 16 14 12 13 10 10 13 17 22 24 23 21 19 17 18 20 20 20 19 19 19 20 21 23 26 27 27 27 28 29 30 31 33 34 36 38 39 40 40 39 39 39 40 41 41 41 42 44 45 45 44 44 43 42 42 43
6 6 4 3 5 1 2 7 10 8 3 3 1 7 5 4 7 7 6 6 6 9 8 6 7 7 10 11 7 8 12 13 13 12 10 11 15 20 22 23 24 24 22 21 20 19 19 17 17 17 17 18 19 21 24 25 27 28 28 28 27 28 29 30 33 35 36 37 37 37 36 36 37 38 39 40 41 43 44 43 43 43 43 42 42 41
4 6 6 1 2 2 2 6 10 13 11 6 5 9 9 5 3 4 7 5 4 7 7 7 9 9 6 6 9 11 11 12 13 12 11 17 23 26 27 26 27 25 23 23 20 18 17 16 16 16 16 17 17 18 20 22 25 27 27 27 26 26 27 28 30 32 34 34 34 35 34 34 35 36 37 39 40 41 41 41 42 42 42 42 41 41
4 4 7 4 2 5 5 2 4 8 10 12 12 12 14 12 6 6 9 4 2 5 5 5 10 11 5 5 9 12 11 11 15 14 13 19 25 26 27 26 24 21 19 19 18 16 16 16 15 15 16 16 17 17 18 19 21 23 24 25 26 26 26 28 30 32 33 34 35 35 34 34 35 35 37 38 39 40 40 40 41 41 42 42 41 41
5 3 5 5 3 5 5 2 2 5 7 10 10 8 11 11 8 10 11 6 4 5 3 2 8 8 3 7 9 11 12 14 19 17 13 16 20 20 22 22 19 19 18 17 17 16 16 15 15 16 17 18 18 19 19 20 21 21 22 24 25 26 27 29 30 32 34 35 35 36 35 35 35 36 37 38 39 39 40 40 40 41 41 41 41 40
5 3 4 4 2 2 3 5 5 5 5 7 6 4 7 11 13 10 7 5 6 8 6 4 8 8 4 6 8 8 11 14 16 16 15 17 20 21 22 19 18 20 19 17 17 17 16 17 17 19 19 18 18 19 20 22 23 24 24 24 25 26 28 30 31 33 34 35 36 36 36 35 35 36 37 38 39 39 39 39 39 39 40 39 39 39
8 4 5 4 2 2 2 3 5 4 3 4 7 7 7 12 14 6 1 2 6 12 13 8 10 11 4 4 6 5 6 8 11 16 19 20 22 23 22 22 21 21 19 17 17 17 17 18 19 19 18 17 17 18 19 21 23 24 25 25 26 26 26 27 29 30 32 34 35 35 34 34 34 35 35 36 37 37 37 37 37 37 37 37 37 37
10 4 7 8 7 8 8 6 5 4 4 3 6 11 11 13 16 10 5 6 9 12 14 10 12 11 1 2 6 4 4 7 10 13 16 19 22 23 23 24 23 20 18 17 17 17 18 18 19 19 17 17 16 17 19 21 22 23 24 24 24 24 24 24 24 25 27 29 31 31 30 30 29 29 30 30 31 32 33 34 34 34 34 35 35 34
4 3 9 10 9 9 6 3 1 3 5 4 7 14 16 16 17 14 9 9 10 11 10 10 14 14 9 6 6 5 5 8 8 9 14 20 23 24 25 25 22 19 18 17 17 17 18 19 20 19 17 17 17 17 19 19 19 20 20 20 20 20 21 22 22 23 23 24 25 26 26 25 25 25 26 26 28 29 30 31 31 32 32 32 32 32
1 4 12 11 13 13 6 3 4 5 5 6 9 14 15 15 16 15 12 12 11 9 10 11 13 17 18 11 7 7 8 8 8 10 16 22 24 24 24 22 20 20 19 18 18 18 19 21 21 19 18 17 17 17 16 15 15 15 15 14 15 16 17 18 19 19 19 20 22 22 22 22 23 23 24 24 25 26 27 27 28 29 29 29 30 30
1 7 13 13 17 19 13 9 7 7 7 8 11 14 15 14 15 15 16 16 13 10 12 13 13 17 21 16 10 10 10 9 11 15 18 20 20 19 19 20 19 19 18 18 19 19 21 24 22 20 18 17 16 14 13 12 12 11 11 11 11 12 13 14 14 14 15 16 17 18 19 19 20 20 20 21 21 22 23 24 24 25 27 27 28 28
2 8 11 13 17 19 18 15 9 9 10 9 12 16 16 16 16 16 17 17 15 12 11 13 15 16 19 19 11 10 13 16 16 16 17 18 18 17 18 19 19 18 18 18 19 20 24 27 25 22 18 17 16 14 12 11 11 10 10 9 9 9 10 11 11 12 12 13 14 15 16 16 17 17 17 18 19 19 20 21 22 23 25 25 27 27
4 7 8 11 12 14 16 16 12 12 12 11 13 15 15 17 16 15 16 15 13 13 14 18 17 14 18 19 8 10 18 19 16 17 20 21 20 17 18 21 22 22 21 20 20 23 29 33 29 24 21 20 18 15 14 13 12 10 9 8 8 8 9 9 10 10 11 11 12 13 14 14 14 15 16 16 17 18 18 19 21 22 23 25 26 28
3 4 5 8 7 9 12 14 14 14 12 13 15 14 15 17 16 16 17 17 16 17 18 19 15 14 19 15 5 11 16 14 14 20 24 25 26 24 26 31 33 30 24 24 28 32 38 42 36 29 26 24 21 19 18 16 14 13 11 9 8 7 8 8 9 10 11 11 12 13 13 13 13 14 15 15 16 17 17 18 20 21 22 24 25 27
1 2 3 6 7 9 11 14 15 13 11 12 13 16 20 19 18 19 18 20 21 17 14 15 15 18 20 10 5 11 12 10 14 23 27 30 35 37 40 42 41 37 32 33 38 40 43 46 42 35 30 27 25 23 21 19 18 16 14 12 11 11 10 10 10 10 12 13 14 14 13 13 14 14 15 16 16 17 17 18 19 19 21 22 23 24
1 1 1 2 4 7 9 11 11 11 12 11 11 18 24 23 22 21 18 21 23 16 14 16 15 20 23 15 12 16 14 12 19 26 30 34 38 41 45 45 42 41 40 39 39 41 43 45 44 37 32 30 30 27 22 21 19 17 17 16 16 16 15 14 14 13 12 13 15 16 16 15 15 16 16 16 16 16 17 17 18 18 20 21 21 21
2 2 1 1 2 2 5 8 8 10 9 6 3 11 21 23 23 22 21 24 22 20 21 22 21 26 27 20 21 24 23 22 24 28 34 39 41 41 41 41 42 43 42 39 38 40 41 42 41 38 34 33 33 31 26 23 22 21 22 21 20 20 19 19 19 18 16 15 15 17 18 18 18 18 17 17 16 16 16 16 17 17 18 19 19 19
4 3 1 1 2 2 3 6 7 4 1 1 1 7 12 14 15 15 17 22 23 24 25 24 28 30 24 24 31 29 23 20 20 28 39 40 38 39 39 41 44 44 43 42 42 42 42 41 41 42 40 38 36 35 31 28 26 25 25 24 23 23 24 24 23 23 22 20 18 18 18 19 20 19 18 17 17 16 16 16 16 17 17 18 19 19
6 4 2 1 2 2 2 4 4 3 2 2 3 5 10 13 16 16 16 21 24 23 20 20 26 27 24 32 35 21 9 8 11 28 43 38 32 35 40 43 45 45 45 46 44 44 43 41 41 44 45 43 39 37 34 31 29 27 26 25 24 25 27 28 27 26 26 25 23 21 20 20 21 20 20 19 18 17 16 16 17 17 18 19 19 19
6 5 5 3 2 2 1 3 3 3 4 5 5 8 14 18 18 14 11 15 15 17 21 23 25 28 30 30 22 7 1 6 11 23 30 27 31 38 42 44 46 46 47 48 45 44 43 41 41 42 45 45 41 37 34 32 30 29 27 25 25 26 28 30 30 29 29 29 28 26 23 22 22 22 22 21 19 18 17 17 18 18 18 18 18 18
6 4 5 4 3 2 1 3 3 2 4 4 3 5 9 12 9 7 5 14 11 15 26 27 25 31 29 17 8 9 4 9 16 14 8 12 28 39 42 48 51 50 50 50 48 47 45 42 41 41 44 44 40 36 35 35 33 31 28 26 25 27 28 29 30 31 31 31 30 28 26 24 24 25 24 22 20 19 18 18 18 18 18 17 16 16
6 4 4 4 4 4 4 4 3 2 5 6 4 3 3 13 14 9 7 14 9 14 25 26 26 32 25 9 10 11 10 15 20 13 6 14 26 30 36 46 50 50 52 53 52 51 48 44 42 41 42 43 40 38 38 38 35 33 31 29 28 29 29 29 30 30 31 32 31 28 26 25 25 25 25 23 21 19 19 19 18 18 17 16 15 14
3 3 5 6 6 6 6 5 4 3 6 10 7 2 6 12 11 7 12 10 4 12 24 29 29 30 26 17 16 16 21 32 37 32 27 27 26 28 38 45 43 44 47 47 48 50 49 47 45 43 42 42 41 41 41 40 38 36 34 32 34 35 32 30 31 31 32 32 31 27 25 24 24 24 23 22 21 20 19 19 18 17 15 14 14 13
1 1 3 6 6 5 5 5 5 4 8 11 7 8 11 8 4 8 14 11 6 11 22 30 33 31 29 28 29 31 37 46 50 48 43 39 36 42 49 47 41 41 42 41 42 46 48 50 49 47 46 45 44 43 43 43 41 38 36 36 38 39 36 33 33 34 33 32 29 26 24 23 23 23 23 22 21 20 18 17 16 16 15 14 14 13
5 3 3 4 5 4 3 4 5 5 8 9 7 6 6 7 6 10 11 12 17 17 14 20 29 32 32 33 37 42 46 47 49 50 49 47 47 51 54 52 46 42 41 41 41 42 45 48 49 50 49 47 46 46 46 44 41 38 38 39 39 39 38 37 36 36 35 33 29 27 25 23 22 23 22 22 21 19 17 16 16 16 16 15 15 15
3 4 2 3 4 4 4 5 5 6 9 11 12 6 10 17 20 21 15 15 25 26 19 18 23 27 30 34 37 41 43 44 47 49 48 48 50 52 54 55 51 45 44 43 41 40 42 44 45 48 49 48 50 50 46 43 40 39 39 40 40 41 41 39 38 37 36 33 31 29 27 24 23 23 22 22 21 19 17 17 17 17 17 17 17 16
7 8 7 6 4 5 5 6 8 11 16 15 13 12 19 27 32 33 28 25 27 28 26 24 24 25 29 32 35 37 38 39 41 43 45 47 50 50 51 53 52 50 49 47 44 42 41 41 42 44 45 46 49 48 44 41 40 40 41 41 42 42 42 40 38 37 35 34 33 30 28 26 24 24 23 22 21 19 18 18 18 18 18 18 17 17
8 10 8 5 4 5 7 7 7 12 22 24 19 17 21 26 30 34 36 36 35 33 30 28 25 25 28 31 34 37 38 38 40 41 44 47 48 47 47 50 51 50 50 50 48 46 43 42 42 42 41 43 46 44 41 39 41 41 41 40 41 41 40 38 37 36 35 35 33 31 29 27 26 25 24 23 21 20 19 19 18 18 18 17 17 16
6 9 7 3 4 6 7 7 8 14 24 30 25 22 24 27 29 32 36 41 42 40 39 37 31 25 26 29 33 35 37 38 40 41 43 47 48 47 47 49 50 50 51 51 50 48 46 44 42 41 41 42 44 43 40 41 42 41 40 40 39 38 36 36 35 35 36 35 33 31 30 28 27 26 25 24 22 22 21 20 19 18 17 16 16 15
6 8 6 5 6 7 6 8 13 21 32 37 33 25 24 29 35 38 41 45 46 42 40 41 38 33 34 38 41 42 41 40 40 40 43 49 50 49 50 51 51 52 52 50 48 46 46 44 42 42 41 41 42 41 40 41 42 40 40 40 37 35 34 34 34 35 35 35 33 31 30 28 27 26 25 24 23 22 21 20 18 17 16 16 15 15
7 6 5 5 7 8 8 11 15 17 24 34 38 33 29 34 41 45 45 46 46 43 41 42 41 40 42 46 48 49 49 47 46 45 49 53 53 53 54 56 55 52 49 46 44 44 45 46 46 44 42 41 41 40 39 39 39 40 40 38 36 35 34 34 34 35 35 35 33 31 29 28 27 27 26 25 24 23 21 19 18 17 17 16 16 15
7 6 6 6 7 8 9 13 17 13 11 23 35 37 35 38 43 45 46 45 44 45 46 45 45 46 47 49 51 51 51 52 53 53 54 55 55 56 58 57 53 46 40 37 38 40 44 47 47 45 42 40 40 40 38 37 39 40 39 37 36 36 36 35 35 35 35 35 33 31 30 29 29 29 28 27 26 25 24 22 20 19 18 17 16 15
12 10 9 8 9 12 15 20 23 16 12 23 39 44 42 40 39 39 41 43 43 46 47 45 45 46 48 51 53 52 52 53 53 53 55 55 55 56 55 50 43 37 33 32 33 36 40 43 45 44 42 40 40 40 39 39 40 40 39 37 37 38 38 37 36 36 36 35 33 31 31 31 31 31 30 29 27 26 24 23 22 21 20 18 17 16
Wind_Direction
170 164 190 203 207 201 201 205 206 156 141 154 149 182 191 197 235 222 242 227 179 192 228 217 228 241 247 248 245 251 250 248 250 246 243 243 244 245 245 245 245 246 249 251 253 251 248 245 244 243 241 238 234 232 232 232 233 235 234 236 238 239 240 239 236 234 231 229 229 230 231 233 233 233 233 233 235 235 234 233 231 231 231 232 234 236
177 195 211 212 207 197 201 202 199 171 144 156 171 192 204 208 236 236 246 259 186 199 232 220 234 244 248 251 246 246 244 245 246 242 242 243 244 246 245 246 247 249 252 255 256 254 249 245 243 242 241 240 238 234 231 231 231 233 234 236 237 238 239 238 236 234 233 231 231 233 234 235 235 235 236 237 239 239 238 236 235 234 233 233 234 235
182 213 218 209 195 182 193 196 194 187 157 169 173 170 209 209 248 277 270 293 196 199 243 238 240 247 250 252 248 242 234 242 245 241 242 245 246 248 248 249 250 251 253 254 255 254 251 247 243 241 241 241 242 239 235 234 232 232 233 235 236 237 238 238 237 235 234 233 234 236 238 239 239 239 240 242 243 242 242 241 240 239 237 236 236 237
185 221 217 193 171 178 184 183 184 189 180 182 167 173 208 170 159 251 264 276 254 190 211 253 265 257 253 262 258 244 239 246 251 248 248 248 248 251 252 252 252 252 254 254 254 253 251 249 243 239 240 241 242 241 238 236 235 234 233 234 235 236 238 238 238 237 237 236 237 239 240 241 242 243 243 243 242 241 240 242 242 243 242 240 240 240
204 214 187 169 177 187 183 177 179 194 212 207 185 189 194 159 181 217 218 248 282 277 188 346 295 269 231 244 256 245 238 245 250 249 249 249 249 253 254 254 254 253 255 255 255 253 250 248 245 240 240 241 242 242 240 237 235 235 234 234 235 236 238 239 239 239 238 238 238 238 239 239 239 240 241 240 239 238 237 238 240 242 244 244 245 245
216 161 145 173 191 182 182 189 190 193 206 221 214 195 174 161 179 186 154 146 290 276 258 114 272 272 210 220 242 241 228 237 243 242 243 247 248 250 251 252 253 254 254 255 255 254 252 250 248 245 241 240 242 243 243 241 238 237 237 236 236 236 238 239 240 239 238 238 238 237 236 236 236 237 238 238 239 238 238 240 241 242 244 246 248 249
215 167 164 183 178 170 189 203 198 190 197 224 213 176 157 156 164 158 145 165 212 246 282 154 225 270 270 226 241 243 238 242 244 244 244 247 248 248 249 251 253 254 254 253 254 253 251 249 248 247 245 242 243 245 245 244 242 240 240 239 239 238 239 239 239 238 237 237 238 238 238 238 238 239 241 243 243 242 243 244 245 245 246 247 249 251
178 185 183 180 172 173 195 206 199 187 198 229 159 143 161 146 148 159 147 180 229 264 303 247 188 275 276 244 227 226 247 254 251 254 252 248 248 247 248 250 252 253 253 252 253 252 251 249 248 247 248 246 247 248 247 245 244 244 243 242 242 242 242 241 240 239 239 238 238 239 239 241 241 243 245 246 246 247 247 247 247 247 248 249 251 253
178 189 183 177 178 184 201 205 187 178 200 229 136 147 170 125 118 123 115 149 356 19 273 246 112 278 269 244 198 212 237 245 243 243 247 247 247 246 248 250 251 253 253 253 253 254 253 252 251 249 249 250 250 250 249 248 248 247 246 245 245 244 245 244 242 241 241 241 241 241 241 242 243 245 247 247 248 249 248 249 249 249 250 251 252 254
171 202 191 177 181 197 202 179 157 176 199 188 134 122 99 77 79 82 92 91 43 332 248 222 158 239 268 238 175 221 241 236 238 240 245 249 248 248 250 251 252 253 254 255 255 256 256 255 255 254 252 250 250 250 251 251 250 249 248 246 245 246 246 246 245 244 243 243 242 242 243 243 244 245 246 246 247 248 249 249 250 250 251 252 253 254
359 207 188 184 199 195 163 138 162 176 157 124 109 88 75 50 41 54 64 69 56 261 245 206 176 207 264 240 177 203 213 203 222 240 247 250 250 251 252 253 255 255 255 256 256 257 256 256 256 255 253 251 250 251 250 250 250 250 249 248 247 248 247 247 247 246 246 245 244 244 245 245 246 246 245 246 247 248 249 250 252 252 252 253 254 255
279 195 162 202 205 173 126 150 171 161 144 130 108 109 115 56 26 54 41 91 208 251 240 196 177 188 240 242 180 206 203 183 205 224 236 245 251 257 258 258 260 260 260 259 258 259 257 255 254 253 252 251 250 250 249 250 250 249 249 248 249 248 248 248 248 248 247 247 246 246 247 247 248 248 247 247 248 249 250 252 254 254 254 254 255 255
235 223 186 206 197 167 150 155 127 141 156 149 130 144 155 184 197 200 204 185 218 246 243 183 170 184 237 242 214 233 242 224 221 226 238 246 254 259 257 255 258 266 274 271 264 262 259 256 254 252 252 251 250 249 249 250 250 250 250 249 249 249 249 249 249 249 249 248 248 249 250 250 250 250 250 250 251 251 252 253 254 255 255 255 256 256
220 234 205 194 181 173 171 160 151 173 177 174 166 169 180 183 196 209 207 207 224 241 300 173 167 202 249 250 230 229 235 237 234 234 243 249 252 253 247 242 247 262 280 282 271 263 261 260 256 252 251 251 251 251 251 251 250 250 250 249 249 250 251 250 250 249 249 249 250 251 252 253 252 252 252 253 253 253 254 255 255 256 257 257 257 258
194 232 201 190 177 178 184 185 182 176 180 190 181 176 187 182 196 210 202 212 227 243 299 192 180 208 235 257 233 228 240 246 243 242 247 253 254 254 253 250 248 258 273 276 269 262 257 257 255 252 250 250 251 253 254 254 253 251 250 249 250 251 251 250 250 249 249 250 251 252 253 254 254 254 255 255 255 256 256 257 257 258 259 259 260 261
200 267 213 194 185 180 192 196 179 164 179 196 171 183 203 192 182 192 206 209 198 344 223 203 230 228 232 293 284 255 263 259 253 254 257 259 259 256 256 255 254 264 274 266 254 251 248 246 249 249 248 248 249 251 253 254 254 253 252 252 252 252 252 251 250 250 250 251 253 253 253 254 254 255 255 255 256 256 256 257 258 260 261 262 263 263
183 271 218 187 200 199 200 194 170 166 177 181 180 195 201 170 154 160 237 172 114 222 226 189 251 266 304 286 262 240 258 266 259 256 252 254 256 252 251 255 259 266 271 258 245 247 249 251 255 254 249 246 247 250 251 252 253 254 254 255 254 254 253 251 250 250 251 251 252 254 255 255 255 255 255 256 257 257 257 258 259 260 262 262 263 264
171 273 249 181 204 218 207 197 186 185 178 161 190 191 138 82 92 123 209 65 102 235 235 199 235 240 225 261 246 214 230 243 250 248 244 248 251 248 248 251 254 258 261 256 247 248 253 258 260 256 249 245 246 249 251 250 251 252 255 257 257 256 254 252 251 250 250 251 252 254 255 255 255 256 257 259 260 260 259 259 260 261 261 262 264 264
159 241 273 188 199 217 202 200 201 203 205 138 189 176 137 165 200 169 192 200 190 228 239 220 232 231 215 231 231 196 212 217 227 238 246 248 241 240 244 244 244 247 250 248 243 245 253 259 259 253 245 244 246 249 250 249 248 249 250 253 254 254 254 254 253 252 252 252 253 255 257 258 258 258 259 261 262 261 261 261 262 262 262 263 263 264
159 210 255 191 186 139 144 204 200 197 230 338 169 169 161 206 202 187 201 209 202 220 237 232 228 234 224 215 197 198 207 208 219 232 245 244 232 231 236 241 247 249 247 247 248 249 253 257 256 249 245 245 245 246 247 246 245 244 246 248 248 249 250 251 251 250 251 252 253 255 257 258 257 257 259 260 261 262 262 263 264 263 264 264 264 265
128 204 231 185 108 139 188 207 200 196 194 186 177 182 191 207 192 191 208 200 183 211 228 235 236 245 239 193 183 197 201 202 212 221 234 239 238 236 239 248 255 256 251 251 255 253 250 251 249 242 239 239 239 241 243 243 242 242 243 246 247 247 246 246 247 248 249 250 251 252 253 254 254 255 257 258 260 261 263 264 264 265 266 265 265 266
138 188 211 196 150 197 212 213 220 224 209 194 191 190 194 194 176 193 208 187 157 211 200 212 245 255 241 182 183 196 200 200 203 205 218 232 234 237 242 249 253 252 248 247 249 246 244 247 242 233 232 234 237 242 244 245 245 245 245 246 247 247 247 245 245 246 246 246 247 247 248 249 251 253 254 256 258 259 261 262 263 265 265 265 266 267
147 131 196 209 209 215 232 269 290 297 268 225 208 196 198 195 181 198 209 194 189 211 166 175 257 268 229 187 189 192 199 204 205 202 212 231 235 240 248 248 242 240 243 242 242 242 243 244 239 236 239 243 245 247 246 247 247 247 246 246 247 247 247 246 245 244 244 245 245 246 247 247 249 250 252 253 254 256 258 260 262 264 265 266 267 268
123 109 190 220 282 303 303 303 305 324 291 240 222 200 199 200 199 205 208 188 191 205 198 217 253 262 240 199 205 208 206 208 212 213 221 238 246 250 253 248 237 237 239 237 238 240 239 241 243 246 251 253 254 252 248 247 247 247 247 246 245 246 246 246 246 245 245 245 246 247 248 249 249 250 251 252 253 255 257 259 260 262 263 265 266 267
164 170 183 196 245 273 265 273 275 282 277 244 220 210 208 204 202 200 101 166 205 210 206 212 240 250 244 176 201 230 220 213 220 221 223 234 242 244 245 243 237 234 232 233 236 237 238 245 251 255 257 258 257 256 253 250 249 249 249 248 246 245 246 247 248 248 247 247 247 247 248 250 252 253 254 256 257 258 259 260 260 260 261 262 263 263
175 172 179 193 205 211 212 219 232 218 207 239 223 213 214 203 196 196 192 197 207 209 205 209 230 243 277 135 205 221 203 211 225 224 221 228 235 237 236 232 227 223 225 232 235 237 242 249 252 253 254 256 257 257 257 256 254 253 253 253 250 248 247 248 248 248 247 246 245 245 246 248 250 253 255 256 257 258 258 258 257 257 257 258 259 259
159 168 189 201 213 223 226 212 178 116 146 181 208 211 214 206 199 201 204 204 207 209 209 213 229 242 246 219 218 224 204 208 219 219 216 222 227 228 225 220 216 217 224 231 234 239 246 249 249 250 252 255 256 256 256 256 257 256 255 254 251 247 246 246 247 247 245 243 242 241 243 244 246 247 248 249 250 251 252 253 254 254 255 255 256 256
107 194 193 198 214 227 233 176 151 134 165 197 208 216 221 214 207 207 211 212 205 208 222 217 220 240 246 228 198 211 216 209 211 207 204 208 212 214 214 211 212 220 224 225 230 238 245 248 246 245 247 250 253 253 251 250 250 249 248 246 243 241 240 240 241 241 239 238 237 237 238 239 241 242 242 244 246 248 250 251 252 254 254 255 255 255
164 203 195 193 211 221 218 202 172 153 182 198 202 218 228 224 217 215 220 221 211 214 230 221 212 234 249 241 209 202 208 205 213 210 200 204 209 210 211 212 219 229 230 230 236 242 247 248 243 238 238 239 242 243 238 233 231 228 227 226 226 227 229 231 232 231 230 230 231 232 233 234 236 238 240 242 244 246 248 250 252 253 254 255 255 255
196 213 197 192 214 223 216 212 196 181 200 202 201 213 220 225 227 224 225 229 228 234 249 248 240 240 249 249 224 202 214 215 217 219 213 217 220 216 217 221 229 237 236 238 246 253 259 254 241 230 227 223 224 226 219 212 208 203 201 204 209 214 218 221 223 224 224 226 227 229 231 233 236 238 240 242 244 246 248 249 250 251 253 255 256 255
201 218 187 181 217 231 219 214 206 202 212 214 213 214 212 219 226 228 233 236 236 242 248 251 254 251 255 256 221 186 213 216 219 228 230 232 232 228 231 238 240 235 229 235 248 259 268 261 242 224 221 220 217 214 210 205 199 193 193 194 197 206 214 218 220 223 224 226 228 230 232 234 236 237 239 241 242 244 247 248 249 250 251 253 254 254
206 221 165 164 211 231 214 209 209 211 217 223 224 217 212 217 217 218 225 224 222 227 232 241 250 250 255 257 179 180 207 205 210 223 229 237 240 240 243 245 245 238 231 242 255 262 267 262 246 227 223 225 221 216 215 213 211 211 212 214 215 217 223 225 226 228 228 227 229 231 232 234 235 236 238 239 240 243 245 246 248 249 249 250 251 251
199 228 173 167 201 223 207 197 203 210 218 226 220 207 209 215 214 215 220 222 222 221 222 232 236 240 249 247 188 214 215 193 209 216 218 228 234 237 240 242 244 245 246 253 260 261 261 258 249 236 231 232 229 224 222 221 222 225 227 230 234 235 237 239 239 239 237 235 236 235 234 234 235 236 237 238 239 240 241 244 246 247 248 248 248 248
94 53 291 191 211 226 193 175 193 212 217 223 211 202 207 210 210 215 218 220 222 217 222 236 242 248 252 246 233 241 233 217 225 223 220 225 228 233 239 241 243 247 250 253 255 255 254 254 251 243 239 241 237 229 225 224 224 230 234 238 243 245 245 246 247 249 249 246 245 241 238 236 236 237 238 238 239 239 239 242 244 246 247 248 247 246
108 86 339 286 275 238 155 156 199 218 218 229 199 193 205 210 210 214 222 225 220 215 223 234 240 245 247 244 247 252 250 245 243 238 236 234 231 233 239 243 245 247 248 248 247 249 250 251 250 246 245 249 244 233 227 226 227 233 238 242 248 252 252 249 247 249 251 252 251 246 240 238 236 237 238 238 240 242 242 242 243 245 247 248 247 245
149 140 165 244 247 238 164 178 211 232 240 272 195 176 194 210 214 214 229 235 224 215 218 224 234 242 246 249 250 250 253 259 258 252 247 240 233 234 238 243 247 247 247 245 244 247 250 250 251 249 249 254 250 240 234 232 234 238 240 243 248 251 251 248 246 245 245 247 250 248 243 239 237 237 238 239 240 240 241 242 243 245 247 247 246 245
145 142 161 198 215 237 249 222 237 314 352 231 222 173 170 193 202 201 221 234 225 219 217 223 237 244 244 247 246 242 257 288 277 261 253 241 232 236 238 241 245 246 248 249 248 251 254 254 255 254 252 254 252 245 241 239 238 239 239 241 243 244 244 244 243 242 241 241 243 244 243 239 237 237 238 239 240 239 239 239 240 242 243 243 243 242
157 159 166 173 200 212 277 286 273 265 244 227 216 196 191 200 202 194 217 239 229 213 213 220 234 239 239 243 241 213 246 289 274 263 252 234 231 238 240 241 244 245 249 251 252 253 253 253 254 254 253 252 249 246 245 243 240 239 238 240 240 239 239 239 240 240 239 237 237 237 237 237 236 237 238 239 240 239 238 237 237 238 238 238 238 238
172 155 147 167 211 198 219 276 267 249 258 242 214 215 205 193 168 128 209 244 234 206 210 217 227 236 240 238 192 156 187 254 256 252 220 217 238 242 242 244 245 244 247 250 252 253 252 251 251 251 252 248 243 243 246 243 239 237 237 240 239 236 236 239 241 241 239 237 236 235 233 231 232 234 236 238 238 238 238 237 236 235 234 233 233 234
173 147 150 186 217 214 209 243 253 269 279 265 270 311 179 157 139 126 213 244 239 207 212 218 227 238 244 218 165 183 209 233 247 253 239 250 254 249 250 252 249 247 248 250 252 252 252 251 249 247 247 243 239 242 244 240 236 235 237 241 239 235 238 241 243 242 241 239 238 238 235 232 231 233 235 236 237 237 237 237 235 235 234 233 234 233
176 172 187 195 216 219 206 229 252 249 261 264 269 256 164 153 142 176 223 234 190 189 211 222 232 242 242 219 203 219 230 237 248 257 259 260 260 258 261 261 256 253 254 254 255 254 251 249 246 244 242 241 242 245 243 237 235 234 237 242 241 239 243 247 244 241 241 241 241 240 237 235 235 237 236 236 236 235 234 234 234 235 235 235 235 232
162 184 195 192 211 216 201 229 253 253 257 254 228 177 178 172 161 215 223 227 215 206 215 221 228 236 235 226 224 233 240 245 250 255 256 258 259 261 264 264 258 255 256 255 255 254 251 249 247 245 244 245 246 245 241 237 235 234 237 242 243 243 246 249 245 240 239 241 240 238 236 235 236 237 238 237 237 235 233 232 231 232 232 231 230 225
177 182 207 200 201 198 190 210 225 255 251 219 171 150 183 198 237 249 242 243 247 249 241 228 229 234 233 230 232 237 242 247 252 255 256 257 258 260 263 263 258 256 257 256 252 251 250 249 248 247 246 246 245 242 239 237 235 234 238 243 244 244 246 248 245 240 237 238 237 235 234 233 233 234 236 236 236 233 230 229 228 228 227 226 224 219
183 167 191 214 190 178 197 199 200 243 235 181 155 175 206 209 231 248 252 247 246 252 260 254 245 243 238 235 237 241 243 246 251 256 258 259 259 260 262 263 260 256 257 257 253 251 250 249 249 250 248 246 246 243 239 235 235 236 240 243 242 243 245 246 244 240 235 234 234 232 231 230 230 231 232 231 231 229 226 225 224 223 223 222 221 218
205 186 192 216 206 182 203 209 209 238 243 218 196 208 214 217 230 239 243 249 251 252 256 256 255 256 254 250 249 249 249 250 254 259 262 264 263 261 263 266 264 259 257 256 254 251 249 249 251 252 248 245 246 243 236 232 235 237 239 240 241 243 245 244 241 236 232 231 230 229 228 227 227 227 227 226 226 226 223 222 221 220 220 220 218 217
221 210 206 217 232 229 240 245 234 243 251 244 230 224 228 233 236 235 238 247 252 253 257 260 260 262 265 265 262 257 256 258 260 263 267 268 266 264 265 267 266 262 259 256 254 250 248 250 250 246 241 241 242 240 234 231 235 237 238 241 243 244 243 240 237 234 230 229 228 227 226 226 225 223 221 220 220 220 218 218 218 217 217 217 216 216
246 236 228 216 238 237 237 241 234 239 252 254 247 236 237 245 247 244 244 250 254 255 257 259 261 262 267 273 274 270 267 265 264 265 270 272 271 270 272 272 271 268 263 259 257 252 247 246 243 238 237 239 240 238 235 234 236 238 240 242 243 242 240 237 235 233 230 227 227 226 225 225 224 221 218 215 213 213 211 210 211 211 211 211 212 212
228 223 216 214 236 239 234 241 240 243 252 259 258 248 240 247 254 254 252 254 256 257 256 257 260 263 267 270 274 277 277 275 271 272 277 279 279 279 280 279 278 275 269 263 258 251 243 239 238 237 238 239 238 236 234 236 238 239 239 240 239 237 235 234 233 231 228 226 225 225 224 223 222 219 214 210 207 207 206 204 202 202 203 205 206 206
214 209 198 202 227 241 248 252 252 254 258 260 259 253 246 249 255 258 257 257 258 258 259 259 260 263 265 266 269 273 275 275 275 277 279 280 280 282 285 286 284 279 272 264 257 249 241 239 239 238 238 237 234 230 231 234 237 238 239 238 236 233 231 229 228 227 224 222 223 222 221 219 216 211 206 202 200 197 196 196 195 194 197 198 198 198
214 217 214 211 226 237 236 234 237 241 255 259 259 257 252 252 254 256 258 259 259 259 260 260 260 261 261 262 265 268 271 274 276 276 275 275 277 282 287 290 286 279 271 263 257 250 244 242 239 236 234 234 230 228 231 235 236 236 237 236 234 232 230 228 226 222 220 220 219 217 215 211 206 201 197 194 192 189 187 187 188 190 193 195 195 193
225 224 219 216 228 241 242 239 237 234 240 256 261 262 260 257 256 256 258 260 262 263 263 261 259 260 260 261 262 264 266 270 274 274 272 272 276 282 288 288 282 274 267 260 254 248 243 239 235 231 230 230 228 229 235 237 235 234 235 233 231 230 229 227 224 220 218 216 213 210 207 202 196 192 189 187 187 185 184 184 183 184 187 190 191 191